Showing default

UWE-4, 43880

Orbit data source: Space-Track

UWE-4, 43880 is a payload satellite owned by U Wurzburg (DE) in SSO that was launched on Thu, 27 Dec 2018 UTC via a SOYUZ-2-1A launch vehicle from the Vostochny Cosmodrome (VOSTO). Payload-class satellites include a variety of spacecraft equipped with specific instruments for various scientific and technological missions. These include communications satellites like Starlink; space stations such as the ISS; scientific satellites like the Hubble; Earth observation satellites from companies like Planet Labs, Umbra, and HawkEye 360; GPS; miniature CubeSats for education and research; and military/defense satellites.

Loading next visibility...
Identifier
43880, 2018-111E
Orbit
SSO
Country
Flag of DEDE / GER
Related business
Manufacturer
U Wurzburg
Mission
Operational Amateur Technology
Bus & Motor
CUBESAT 1U, Unknown motor
Mass
1 kg wet, 1 kg dry
Launch date (UTC)
2018-12-27 (7 years ago)
Launch vehicle
SOYUZ-2-1A
Launch site
Vostochny Cosmodrome (VOSTO)
Object type
Payload
Rocket body
Debris
Shape & HBR
Box, 0.1 m
Radar Cross Section
0.015 m², Small (<0.1 m²)

Expand to show TLE details & history
Last TLE update: 5 hours ago

TLE from 5 hours ago
0 UWE-4
1 43880U 18111E   25297.73584500  .00029011  00000-0  95999-3 0  9999
2 43880  97.5827 213.0352 0013611  87.0347 273.2451 15.31200751374575
Epoch: 2025-10-24T17:39Z
TLE epoch observation values (Epoch: 2025-10-24T17:39:37.008Z)
Latitude
-0°
Longitude
-85.24547°
Altitude
474.814 km
Speed
7.629 km/s
True Right ascension
14h 12m 08s
True Declination
0° 00' 00"
Sunlit
Object was in daylight at epoch
Visualization orbit readout
Latitude
Unknown
Longitude
Unknown
Altitude
Unknown
Speed
Unknown
Apparent Right ascension
Unknown
Apparent Declination
Unknown
Sunlit
N/A
Visualization observer readout
Local Sidereal Time
18:22:21
Azimuth
Unknown
Elevation
Unknown
Doppler factor
Unknown
Orbital elements
Apogee altitude
478.507 km
Perigee altitude
459.867 km
Semi-major axis
6,847.324 km
Eccentricity
0.00136
Inclination
97.5827°
RAAN
213.0352°
Arg. of periapsis
87.0347°
True anomaly
273.08936°
Mean anomaly
273.2451°
Eccentric anomaly
273.16723°
Mean motion
3.83056 °/min
Orbital period
93.98 mins
BSTAR
0.00095999
Loading maneuver chart data...
Computing Atmospheric mass density...

Documentation

Showing up to 5 results
|